Year,Month,Day,Hour,Minute,Value (Times are PST for temperature in C)
2009,07,29,00,00,22.20
2009,07,29,00,01,22.20
2009,07,29,00,02,22.20
2009,07,29,00,03,22.10
2009,07,29,00,04,22.10
2009,07,29,00,05,22.10
2009,07,29,00,06,22.00
2009,07,29,00,07,22.00
2009,07,29,00,08,21.90
2009,07,29,00,09,21.90
2009,07,29,00,10,21.90
2009,07,29,00,11,21.90
2009,07,29,00,12,21.90
2009,07,29,00,13,21.90
2009,07,29,00,14,21.90
2009,07,29,00,15,21.90
2009,07,29,00,16,21.90
2009,07,29,00,17,21.90
2009,07,29,00,18,21.90
2009,07,29,00,19,21.90
2009,07,29,00,20,21.80
2009,07,29,00,21,21.80
2009,07,29,00,22,21.80
2009,07,29,00,23,21.80
2009,07,29,00,24,21.80
2009,07,29,00,25,21.80
2009,07,29,00,26,21.80
2009,07,29,00,27,21.80
2009,07,29,00,28,21.80
2009,07,29,00,29,21.80
2009,07,29,00,30,21.80
2009,07,29,00,31,21.80
2009,07,29,00,32,21.80
2009,07,29,00,33,21.80
2009,07,29,00,34,21.80
2009,07,29,00,35,21.80
2009,07,29,00,36,21.80
2009,07,29,00,37,21.80
2009,07,29,00,38,21.80
2009,07,29,00,39,21.80
2009,07,29,00,40,21.80
2009,07,29,00,41,21.70
2009,07,29,00,42,21.60
2009,07,29,00,43,21.60
2009,07,29,00,44,21.50
2009,07,29,00,45,21.50
2009,07,29,00,46,21.40
2009,07,29,00,47,21.40
2009,07,29,00,48,21.40
2009,07,29,00,49,21.40
2009,07,29,00,50,21.40
2009,07,29,00,51,21.30
2009,07,29,00,52,21.30
2009,07,29,00,53,21.30
2009,07,29,00,54,21.30
2009,07,29,00,55,21.30
2009,07,29,00,56,21.20
2009,07,29,00,57,21.20
2009,07,29,00,58,21.20
2009,07,29,00,59,21.20
2009,07,29,01,00,21.20
2009,07,29,01,01,21.20
2009,07,29,01,02,21.20
2009,07,29,01,03,21.20
2009,07,29,01,04,21.20
2009,07,29,01,05,21.20
2009,07,29,01,06,21.20
2009,07,29,01,07,21.20
2009,07,29,01,08,21.20
2009,07,29,01,09,21.20
2009,07,29,01,10,21.20
2009,07,29,01,11,21.20
2009,07,29,01,12,21.10
2009,07,29,01,13,21.10
2009,07,29,01,14,21.10
2009,07,29,01,15,21.10
2009,07,29,01,16,21.10
2009,07,29,01,17,21.10
2009,07,29,01,18,21.10
2009,07,29,01,19,21.10
2009,07,29,01,20,21.10
2009,07,29,01,21,21.10
2009,07,29,01,22,21.10
2009,07,29,01,23,21.10
2009,07,29,01,24,21.00
2009,07,29,01,25,21.00
2009,07,29,01,26,21.00
2009,07,29,01,27,21.00
2009,07,29,01,28,21.00
2009,07,29,01,29,21.00
2009,07,29,01,30,20.90
2009,07,29,01,31,20.90
2009,07,29,01,32,20.90
2009,07,29,01,33,20.90
2009,07,29,01,34,20.80
2009,07,29,01,35,20.80
2009,07,29,01,36,20.80
2009,07,29,01,37,20.80
2009,07,29,01,38,20.80
2009,07,29,01,39,20.80
2009,07,29,01,40,20.80
2009,07,29,01,41,20.80
2009,07,29,01,42,20.80
2009,07,29,01,43,20.80
2009,07,29,01,44,20.80
2009,07,29,01,45,20.80
2009,07,29,01,46,20.70
2009,07,29,01,47,20.70
2009,07,29,01,48,20.70
2009,07,29,01,49,20.70
2009,07,29,01,50,20.60
2009,07,29,01,51,20.60
2009,07,29,01,52,20.60
2009,07,29,01,53,20.60
2009,07,29,01,54,20.60
2009,07,29,01,55,20.60
2009,07,29,01,56,20.60
2009,07,29,01,57,20.50
2009,07,29,01,58,20.50
2009,07,29,01,59,20.50
2009,07,29,02,00,20.40
2009,07,29,02,01,20.40
2009,07,29,02,02,20.40
2009,07,29,02,03,20.30
2009,07,29,02,04,20.30
2009,07,29,02,05,20.30
2009,07,29,02,06,20.20
2009,07,29,02,07,20.20
2009,07,29,02,08,20.20
2009,07,29,02,09,20.20
2009,07,29,02,10,20.20
2009,07,29,02,11,20.10
2009,07,29,02,12,20.10
2009,07,29,02,13,20.10
2009,07,29,02,14,20.00
2009,07,29,02,15,20.00
2009,07,29,02,16,19.90
2009,07,29,02,17,19.90
2009,07,29,02,18,19.90
2009,07,29,02,19,19.80
2009,07,29,02,20,19.80
2009,07,29,02,21,19.80
2009,07,29,02,22,19.80
2009,07,29,02,23,19.80
2009,07,29,02,24,19.80
2009,07,29,02,25,19.80
2009,07,29,02,26,19.80
2009,07,29,02,27,19.80
2009,07,29,02,28,19.80
2009,07,29,02,29,19.80
2009,07,29,02,30,19.80
2009,07,29,02,31,19.80
2009,07,29,02,32,19.80
2009,07,29,02,33,19.80
2009,07,29,02,34,19.80
2009,07,29,02,35,19.80
2009,07,29,02,36,19.80
2009,07,29,02,37,19.80
2009,07,29,02,38,19.80
2009,07,29,02,39,19.80
2009,07,29,02,40,19.80
2009,07,29,02,41,19.90
2009,07,29,02,42,19.90
2009,07,29,02,43,19.90
2009,07,29,02,44,19.90
2009,07,29,02,45,19.90
2009,07,29,02,46,19.90
2009,07,29,02,47,19.90
2009,07,29,02,48,19.90
2009,07,29,02,49,19.90
2009,07,29,02,50,19.90
2009,07,29,02,51,19.90
2009,07,29,02,52,19.90
2009,07,29,02,53,19.80
2009,07,29,02,54,19.80
2009,07,29,02,55,19.80
2009,07,29,02,56,19.80
2009,07,29,02,57,19.80
2009,07,29,02,58,19.80
2009,07,29,02,59,19.80
2009,07,29,03,00,19.80
2009,07,29,03,01,19.80
2009,07,29,03,02,19.80
2009,07,29,03,03,19.80
2009,07,29,03,04,19.70
2009,07,29,03,05,19.70
2009,07,29,03,06,19.70
2009,07,29,03,07,19.70
2009,07,29,03,08,19.70
2009,07,29,03,09,19.70
2009,07,29,03,10,19.70
2009,07,29,03,11,19.70
2009,07,29,03,12,19.70
2009,07,29,03,13,19.70
2009,07,29,03,14,19.70
2009,07,29,03,15,19.70
2009,07,29,03,16,19.70
2009,07,29,03,17,19.70
2009,07,29,03,18,19.70
2009,07,29,03,19,19.70
2009,07,29,03,20,19.70
2009,07,29,03,21,19.70
2009,07,29,03,22,19.70
2009,07,29,03,23,19.70
2009,07,29,03,24,19.80
2009,07,29,03,25,19.80
2009,07,29,03,26,19.80
2009,07,29,03,27,19.80
2009,07,29,03,28,19.80
2009,07,29,03,29,19.80
2009,07,29,03,30,19.80
2009,07,29,03,31,19.70
2009,07,29,03,32,19.70
2009,07,29,03,33,19.70
2009,07,29,03,34,19.70
2009,07,29,03,35,19.70
2009,07,29,03,36,19.70
2009,07,29,03,37,19.80
2009,07,29,03,38,19.80
2009,07,29,03,39,19.80
2009,07,29,03,40,19.80
2009,07,29,03,41,19.80
2009,07,29,03,42,19.80
2009,07,29,03,43,19.70
2009,07,29,03,44,19.70
2009,07,29,03,45,19.70
2009,07,29,03,46,19.70
2009,07,29,03,47,19.60
2009,07,29,03,48,19.60
2009,07,29,03,49,19.60
2009,07,29,03,50,19.60
2009,07,29,03,51,19.60
2009,07,29,03,52,19.60
2009,07,29,03,53,19.60
2009,07,29,03,54,19.60
2009,07,29,03,55,19.60
2009,07,29,03,56,19.60
2009,07,29,03,57,19.60
2009,07,29,03,58,19.60
2009,07,29,03,59,19.60
2009,07,29,04,00,19.60
2009,07,29,04,01,19.50
2009,07,29,04,02,19.50
2009,07,29,04,03,19.50
2009,07,29,04,04,19.50
2009,07,29,04,05,19.40
2009,07,29,04,06,19.40
2009,07,29,04,07,19.40
2009,07,29,04,08,19.40
2009,07,29,04,09,19.30
2009,07,29,04,10,19.30
2009,07,29,04,11,19.30
2009,07,29,04,12,19.30
2009,07,29,04,13,19.30
2009,07,29,04,14,19.20
2009,07,29,04,15,19.20
2009,07,29,04,16,19.20
2009,07,29,04,17,19.20
2009,07,29,04,18,19.20
2009,07,29,04,19,19.20
2009,07,29,04,20,19.20
2009,07,29,04,21,19.20
2009,07,29,04,22,19.20
2009,07,29,04,23,19.20
2009,07,29,04,24,19.20
2009,07,29,04,25,19.20
2009,07,29,04,26,19.20
2009,07,29,04,27,19.20
2009,07,29,04,28,19.20
2009,07,29,04,29,19.20
2009,07,29,04,30,19.20
2009,07,29,04,31,19.20
2009,07,29,04,32,19.20
2009,07,29,04,33,19.20
2009,07,29,04,34,19.20
2009,07,29,04,35,19.10
2009,07,29,04,36,19.10
2009,07,29,04,37,19.10
2009,07,29,04,38,19.10
2009,07,29,04,39,19.10
2009,07,29,04,40,19.10
2009,07,29,04,41,19.10
2009,07,29,04,42,19.00
2009,07,29,04,43,19.00
2009,07,29,04,44,18.90
2009,07,29,04,45,18.90
2009,07,29,04,46,18.90
2009,07,29,04,47,18.90
2009,07,29,04,48,18.80
2009,07,29,04,49,18.80
2009,07,29,04,50,18.80
2009,07,29,04,51,18.80
2009,07,29,04,52,18.70
2009,07,29,04,53,18.70
2009,07,29,04,54,18.70
2009,07,29,04,55,18.70
2009,07,29,04,56,18.70
2009,07,29,04,57,18.70
2009,07,29,04,58,18.70
2009,07,29,04,59,18.70
2009,07,29,05,00,18.70
2009,07,29,05,01,18.70
2009,07,29,05,02,18.70
2009,07,29,05,03,18.70
2009,07,29,05,04,18.60
2009,07,29,05,05,18.60
2009,07,29,05,06,18.60
2009,07,29,05,07,18.60
2009,07,29,05,08,18.60
2009,07,29,05,09,18.60
2009,07,29,05,10,18.60
2009,07,29,05,11,18.70
2009,07,29,05,12,18.70
2009,07,29,05,13,18.70
2009,07,29,05,14,18.70
2009,07,29,05,15,18.70
2009,07,29,05,16,18.70
2009,07,29,05,17,18.70
2009,07,29,05,18,18.70
2009,07,29,05,19,18.60
2009,07,29,05,20,18.60
2009,07,29,05,21,18.60
2009,07,29,05,22,18.60
2009,07,29,05,23,18.60
2009,07,29,05,24,18.50
2009,07,29,05,25,18.50
2009,07,29,05,26,18.50
2009,07,29,05,27,18.50
2009,07,29,05,28,18.60
2009,07,29,05,29,18.60
2009,07,29,05,30,18.60
2009,07,29,05,31,18.60
2009,07,29,05,32,18.60
2009,07,29,05,33,18.60
2009,07,29,05,34,18.60
2009,07,29,05,35,18.60
2009,07,29,05,36,18.60
2009,07,29,05,37,18.60
2009,07,29,05,38,18.60
2009,07,29,05,39,18.60
2009,07,29,05,40,18.60
2009,07,29,05,41,18.60
2009,07,29,05,42,18.60
2009,07,29,05,43,18.60
2009,07,29,05,44,18.60
2009,07,29,05,45,18.60
2009,07,29,05,46,18.60
2009,07,29,05,47,18.60
2009,07,29,05,48,18.60
2009,07,29,05,49,18.60
2009,07,29,05,50,18.60
2009,07,29,05,51,18.60
2009,07,29,05,52,18.70
2009,07,29,05,53,18.70
2009,07,29,05,54,18.70
2009,07,29,05,55,18.70
2009,07,29,05,56,18.80
2009,07,29,05,57,18.80
2009,07,29,05,58,18.80
2009,07,29,05,59,18.80
2009,07,29,06,00,18.80
2009,07,29,06,01,18.80
2009,07,29,06,02,18.80
2009,07,29,06,03,18.80
2009,07,29,06,04,18.80
2009,07,29,06,05,18.80
2009,07,29,06,06,18.80
2009,07,29,06,07,18.80
2009,07,29,06,08,18.80
2009,07,29,06,09,18.80
2009,07,29,06,10,18.70
2009,07,29,06,11,18.70
2009,07,29,06,12,18.70
2009,07,29,06,13,18.70
2009,07,29,06,14,18.70
2009,07,29,06,15,18.70
2009,07,29,06,16,18.70
2009,07,29,06,17,18.70
2009,07,29,06,18,18.70
2009,07,29,06,19,18.70
2009,07,29,06,20,18.60
2009,07,29,06,21,18.60
2009,07,29,06,22,18.60
2009,07,29,06,23,18.60
2009,07,29,06,24,18.60
2009,07,29,06,25,18.60
2009,07,29,06,26,18.70
2009,07,29,06,27,18.70
2009,07,29,06,28,18.80
2009,07,29,06,29,18.90
2009,07,29,06,30,18.90
2009,07,29,06,31,19.00
2009,07,29,06,32,19.00
2009,07,29,06,33,19.10
2009,07,29,06,34,19.10
2009,07,29,06,35,19.10
2009,07,29,06,36,19.10
2009,07,29,06,37,19.20
2009,07,29,06,38,19.20
2009,07,29,06,39,19.30
2009,07,29,06,40,19.30
2009,07,29,06,41,19.40
2009,07,29,06,42,19.50
2009,07,29,06,43,19.50
2009,07,29,06,44,19.60
2009,07,29,06,45,19.70
2009,07,29,06,46,19.70
2009,07,29,06,47,19.80
2009,07,29,06,48,19.80
2009,07,29,06,49,19.80
2009,07,29,06,50,19.80
2009,07,29,06,51,19.90
2009,07,29,06,52,19.90
2009,07,29,06,53,19.90
2009,07,29,06,54,20.00
2009,07,29,06,55,20.00
2009,07,29,06,56,20.10
2009,07,29,06,57,20.20
2009,07,29,06,58,20.20
2009,07,29,06,59,20.30
2009,07,29,07,00,20.40
2009,07,29,07,01,20.50
2009,07,29,07,02,20.70
2009,07,29,07,03,20.80
2009,07,29,07,04,20.90
2009,07,29,07,05,21.00
2009,07,29,07,06,21.10
2009,07,29,07,07,21.10
2009,07,29,07,08,21.20
2009,07,29,07,09,21.30
2009,07,29,07,10,21.30
2009,07,29,07,11,21.40
2009,07,29,07,12,21.50
2009,07,29,07,13,21.50
2009,07,29,07,14,21.60
2009,07,29,07,15,21.60
2009,07,29,07,16,21.60
2009,07,29,07,17,21.50
2009,07,29,07,18,21.50
2009,07,29,07,19,21.40
2009,07,29,07,20,21.30
2009,07,29,07,21,21.30
2009,07,29,07,22,21.20
2009,07,29,07,23,21.20
2009,07,29,07,24,21.10
2009,07,29,07,25,21.10
2009,07,29,07,26,21.20
2009,07,29,07,27,21.20
2009,07,29,07,28,21.20
2009,07,29,07,29,21.20
2009,07,29,07,30,21.30
2009,07,29,07,31,21.30
2009,07,29,07,32,21.40
2009,07,29,07,33,21.50
2009,07,29,07,34,21.60
2009,07,29,07,35,21.70
2009,07,29,07,36,21.80
2009,07,29,07,37,21.90
2009,07,29,07,38,22.00
2009,07,29,07,39,22.10
2009,07,29,07,40,22.20
2009,07,29,07,41,22.30
2009,07,29,07,42,22.30
2009,07,29,07,43,22.40
2009,07,29,07,44,22.50
2009,07,29,07,45,22.50
2009,07,29,07,46,22.60
2009,07,29,07,47,22.60
2009,07,29,07,48,22.60
2009,07,29,07,49,22.70
2009,07,29,07,50,22.70
2009,07,29,07,51,22.80
2009,07,29,07,52,22.80
2009,07,29,07,53,22.90
2009,07,29,07,54,22.90
2009,07,29,07,55,23.00
2009,07,29,07,56,23.00
2009,07,29,07,57,23.10
2009,07,29,07,58,23.20
2009,07,29,07,59,23.30
2009,07,29,08,00,23.40
2009,07,29,08,01,23.40
2009,07,29,08,02,23.60
2009,07,29,08,03,23.70
2009,07,29,08,04,23.80
2009,07,29,08,05,23.80
2009,07,29,08,06,23.80
2009,07,29,08,07,23.90
2009,07,29,08,08,23.90
2009,07,29,08,09,23.90
2009,07,29,08,10,23.90
2009,07,29,08,11,24.00
2009,07,29,08,12,24.00
2009,07,29,08,13,24.10
2009,07,29,08,14,24.10
2009,07,29,08,15,24.10
2009,07,29,08,16,24.20
2009,07,29,08,17,24.20
2009,07,29,08,18,24.20
2009,07,29,08,19,24.30
2009,07,29,08,20,24.30
2009,07,29,08,21,24.30
2009,07,29,08,22,24.40
2009,07,29,08,23,24.40
2009,07,29,08,24,24.50
2009,07,29,08,25,24.60
2009,07,29,08,26,24.70
2009,07,29,08,27,24.70
2009,07,29,08,28,24.80
2009,07,29,08,29,24.80
2009,07,29,08,30,24.90
2009,07,29,08,31,25.00
2009,07,29,08,32,25.10
2009,07,29,08,33,25.20
2009,07,29,08,34,25.20
2009,07,29,08,35,25.30
2009,07,29,08,36,25.40
2009,07,29,08,37,25.50
2009,07,29,08,38,25.60
2009,07,29,08,39,25.70
2009,07,29,08,40,25.80
2009,07,29,08,41,25.80
2009,07,29,08,42,25.90
2009,07,29,08,43,25.90
2009,07,29,08,44,26.00
2009,07,29,08,45,26.10
2009,07,29,08,46,26.20
2009,07,29,08,47,26.30
2009,07,29,08,48,26.30
2009,07,29,08,49,26.40
2009,07,29,08,50,26.40
2009,07,29,08,51,26.50
2009,07,29,08,52,26.50
2009,07,29,08,53,26.60
2009,07,29,08,54,26.60
2009,07,29,08,55,26.60
2009,07,29,08,56,26.70
2009,07,29,08,57,26.80
2009,07,29,08,58,26.90
2009,07,29,08,59,26.90
2009,07,29,09,00,27.00
2009,07,29,09,01,27.10
2009,07,29,09,02,27.20
2009,07,29,09,03,27.30
2009,07,29,09,04,27.40
2009,07,29,09,05,27.40
2009,07,29,09,06,27.50
2009,07,29,09,07,27.60
2009,07,29,09,08,27.60
2009,07,29,09,09,27.70
2009,07,29,09,10,27.70
2009,07,29,09,11,27.80
2009,07,29,09,12,27.80
2009,07,29,09,13,27.90
2009,07,29,09,14,27.90
2009,07,29,09,15,27.90
2009,07,29,09,16,28.00
2009,07,29,09,17,28.00
2009,07,29,09,18,28.10
2009,07,29,09,19,28.10
2009,07,29,09,20,28.20
2009,07,29,09,21,28.30
2009,07,29,09,22,28.30
2009,07,29,09,23,28.40
2009,07,29,09,24,28.50
2009,07,29,09,25,28.60
2009,07,29,09,26,28.60
2009,07,29,09,27,28.70
2009,07,29,09,28,28.80
2009,07,29,09,29,28.80
2009,07,29,09,30,28.80
2009,07,29,09,31,28.90
2009,07,29,09,32,28.90
2009,07,29,09,33,28.90
2009,07,29,09,34,29.00
2009,07,29,09,35,29.00
2009,07,29,09,36,29.00
2009,07,29,09,37,29.10
2009,07,29,09,38,29.10
2009,07,29,09,39,29.20
2009,07,29,09,40,29.20
2009,07,29,09,41,29.20
2009,07,29,09,42,29.30
2009,07,29,09,43,29.30
2009,07,29,09,44,29.40
2009,07,29,09,45,29.50
2009,07,29,09,46,29.50
2009,07,29,09,47,29.60
2009,07,29,09,48,29.70
2009,07,29,09,49,29.70
2009,07,29,09,50,29.70
2009,07,29,09,51,29.80
2009,07,29,09,52,29.90
2009,07,29,09,53,29.90
2009,07,29,09,54,30.00
2009,07,29,09,55,30.00
2009,07,29,09,56,30.10
2009,07,29,09,57,30.10
2009,07,29,09,58,30.20
2009,07,29,09,59,30.20
2009,07,29,10,00,30.20
2009,07,29,10,01,30.30
2009,07,29,10,02,30.40
2009,07,29,10,03,30.40
2009,07,29,10,04,30.50
2009,07,29,10,05,30.60
2009,07,29,10,06,30.60
2009,07,29,10,07,30.70
2009,07,29,10,08,30.80
2009,07,29,10,09,30.80
2009,07,29,10,10,30.90
2009,07,29,10,11,30.90
2009,07,29,10,12,31.00
2009,07,29,10,13,31.10
2009,07,29,10,14,31.20
2009,07,29,10,15,31.30
2009,07,29,10,16,31.30
2009,07,29,10,17,31.40
2009,07,29,10,18,31.50
2009,07,29,10,19,31.60
2009,07,29,10,20,31.70
2009,07,29,10,21,31.70
2009,07,29,10,22,31.70
2009,07,29,10,23,31.70
2009,07,29,10,24,31.70
2009,07,29,10,25,31.70
2009,07,29,10,26,31.80
2009,07,29,10,27,31.80
2009,07,29,10,28,31.80
2009,07,29,10,29,31.90
2009,07,29,10,30,31.90
2009,07,29,10,31,31.90
2009,07,29,10,32,31.90
2009,07,29,10,33,32.00
2009,07,29,10,34,32.10
2009,07,29,10,35,32.10
2009,07,29,10,36,32.20
2009,07,29,10,37,32.30
2009,07,29,10,38,32.40
2009,07,29,10,39,32.40
2009,07,29,10,40,32.60
2009,07,29,10,41,32.60
2009,07,29,10,42,32.60
2009,07,29,10,43,32.70
2009,07,29,10,44,32.60
2009,07,29,10,45,32.60
2009,07,29,10,46,32.50
2009,07,29,10,47,32.50
2009,07,29,10,48,32.60
2009,07,29,10,49,32.50
2009,07,29,10,50,32.50
2009,07,29,10,51,32.40
2009,07,29,10,52,32.40
2009,07,29,10,53,32.30
2009,07,29,10,54,32.20
2009,07,29,10,55,32.10
2009,07,29,10,56,32.10
2009,07,29,10,57,32.10
2009,07,29,10,58,32.10
2009,07,29,10,59,32.10
2009,07,29,11,00,32.10
2009,07,29,11,01,32.00
2009,07,29,11,02,32.00
2009,07,29,11,03,31.90
2009,07,29,11,04,32.00
2009,07,29,11,05,32.00
2009,07,29,11,06,32.10
2009,07,29,11,07,32.10
2009,07,29,11,08,32.10
2009,07,29,11,09,32.10
2009,07,29,11,10,32.10
2009,07,29,11,11,32.10
2009,07,29,11,12,32.10
2009,07,29,11,13,32.10
2009,07,29,11,14,32.10
2009,07,29,11,15,32.10
2009,07,29,11,16,32.10
2009,07,29,11,17,32.10
2009,07,29,11,18,32.10
2009,07,29,11,19,32.10
2009,07,29,11,20,32.00
2009,07,29,11,21,32.10
2009,07,29,11,22,32.10
2009,07,29,11,23,32.20
2009,07,29,11,24,32.30
2009,07,29,11,25,32.30
2009,07,29,11,26,32.30
2009,07,29,11,27,32.30
2009,07,29,11,28,32.40
2009,07,29,11,29,32.50
2009,07,29,11,30,32.60
2009,07,29,11,31,32.60
2009,07,29,11,32,32.60
2009,07,29,11,33,32.60
2009,07,29,11,34,32.60
2009,07,29,11,35,32.60
2009,07,29,11,36,32.50
2009,07,29,11,37,32.50
2009,07,29,11,38,32.40
2009,07,29,11,39,32.40
2009,07,29,11,40,32.40
2009,07,29,11,41,32.50
2009,07,29,11,42,32.70
2009,07,29,11,43,32.80
2009,07,29,11,44,32.90
2009,07,29,11,45,32.90
2009,07,29,11,46,32.90
2009,07,29,11,47,32.90
2009,07,29,11,48,33.00
2009,07,29,11,49,33.00
2009,07,29,11,50,33.10
2009,07,29,11,51,33.10
2009,07,29,11,52,33.00
2009,07,29,11,53,32.90
2009,07,29,11,54,32.80
2009,07,29,11,55,32.80
2009,07,29,11,56,32.80
2009,07,29,11,57,32.80
2009,07,29,11,58,32.90
2009,07,29,11,59,33.00
2009,07,29,12,00,33.10
2009,07,29,12,01,33.10
2009,07,29,12,02,33.20
2009,07,29,12,03,33.20
2009,07,29,12,04,33.10
2009,07,29,12,05,33.20
2009,07,29,12,06,33.10
2009,07,29,12,07,33.10
2009,07,29,12,08,33.10
2009,07,29,12,09,33.10
2009,07,29,12,10,33.10
2009,07,29,12,11,33.20
2009,07,29,12,12,33.20
2009,07,29,12,13,33.20
2009,07,29,12,14,33.20
2009,07,29,12,15,33.20
2009,07,29,12,16,33.20
2009,07,29,12,17,33.20
2009,07,29,12,18,33.20
2009,07,29,12,19,33.20
2009,07,29,12,20,33.20
2009,07,29,12,21,33.20
2009,07,29,12,22,33.20
2009,07,29,12,23,33.20
2009,07,29,12,24,33.20
2009,07,29,12,25,33.20
2009,07,29,12,26,33.20
2009,07,29,12,27,33.20
2009,07,29,12,28,33.20
2009,07,29,12,29,33.20
2009,07,29,12,30,33.20
2009,07,29,12,31,33.20
2009,07,29,12,32,33.10
2009,07,29,12,33,33.00
2009,07,29,12,34,33.00
2009,07,29,12,35,33.00
2009,07,29,12,36,33.00
2009,07,29,12,37,33.10
2009,07,29,12,38,33.10
2009,07,29,12,39,33.00
2009,07,29,12,40,33.10
2009,07,29,12,41,33.10
2009,07,29,12,42,33.20
2009,07,29,12,43,33.30
2009,07,29,12,44,33.40
2009,07,29,12,45,33.50
2009,07,29,12,46,33.70
2009,07,29,12,47,33.80
2009,07,29,12,48,33.90
2009,07,29,12,49,33.90
2009,07,29,12,50,34.00
2009,07,29,12,51,34.00
2009,07,29,12,52,33.90
2009,07,29,12,53,33.90
2009,07,29,12,54,33.90
2009,07,29,12,55,33.80
2009,07,29,12,56,33.70
2009,07,29,12,57,33.70
2009,07,29,12,58,33.70
2009,07,29,12,59,33.80
2009,07,29,13,00,33.90
2009,07,29,13,01,34.00
2009,07,29,13,02,34.10
2009,07,29,13,03,34.20
2009,07,29,13,04,34.20
2009,07,29,13,05,34.20
2009,07,29,13,06,34.00
2009,07,29,13,07,33.90
2009,07,29,13,08,33.80
2009,07,29,13,09,33.80
2009,07,29,13,10,33.90
2009,07,29,13,11,33.90
2009,07,29,13,12,33.90
2009,07,29,13,13,33.90
2009,07,29,13,14,33.80
2009,07,29,13,15,33.90
2009,07,29,13,16,34.00
2009,07,29,13,17,34.00
2009,07,29,13,18,34.00
2009,07,29,13,19,34.00
2009,07,29,13,20,33.90
2009,07,29,13,21,33.70
2009,07,29,13,22,33.70
2009,07,29,13,23,33.70
2009,07,29,13,24,33.80
2009,07,29,13,25,33.90
2009,07,29,13,26,33.90
2009,07,29,13,27,33.90
2009,07,29,13,28,33.90
2009,07,29,13,29,33.80
2009,07,29,13,30,33.80
2009,07,29,13,31,33.90
2009,07,29,13,32,34.00
2009,07,29,13,33,34.10
2009,07,29,13,34,34.20
2009,07,29,13,35,34.30
2009,07,29,13,36,34.50
2009,07,29,13,37,34.60
2009,07,29,13,38,34.60
2009,07,29,13,39,34.60
2009,07,29,13,40,34.50
2009,07,29,13,41,34.40
2009,07,29,13,42,34.30
2009,07,29,13,43,34.20
2009,07,29,13,44,34.30
2009,07,29,13,45,34.30
2009,07,29,13,46,34.30
2009,07,29,13,47,34.30
2009,07,29,13,48,34.20
2009,07,29,13,49,34.20
2009,07,29,13,50,34.10
2009,07,29,13,51,34.10
2009,07,29,13,52,34.10
2009,07,29,13,53,34.10
2009,07,29,13,54,34.10
2009,07,29,13,55,34.20
2009,07,29,13,56,34.40
2009,07,29,13,57,34.40
2009,07,29,13,58,34.40
2009,07,29,13,59,34.30
2009,07,29,14,00,34.20
2009,07,29,14,01,34.10
2009,07,29,14,02,34.10
2009,07,29,14,03,34.10
2009,07,29,14,04,34.10
2009,07,29,14,05,34.20
2009,07,29,14,06,34.20
2009,07,29,14,07,34.30
2009,07,29,14,08,34.30
2009,07,29,14,09,34.30
2009,07,29,14,10,34.20
2009,07,29,14,11,34.10
2009,07,29,14,12,34.10
2009,07,29,14,13,34.00
2009,07,29,14,14,33.90
2009,07,29,14,15,33.90
2009,07,29,14,16,33.90
2009,07,29,14,17,33.90
2009,07,29,14,18,34.00
2009,07,29,14,19,34.10
2009,07,29,14,20,34.20
2009,07,29,14,21,34.20
2009,07,29,14,22,34.10
2009,07,29,14,23,33.90
2009,07,29,14,24,33.90
2009,07,29,14,25,33.80
2009,07,29,14,26,33.80
2009,07,29,14,27,33.80
2009,07,29,14,28,33.80
2009,07,29,14,29,33.90
2009,07,29,14,30,34.00
2009,07,29,14,31,34.10
2009,07,29,14,32,34.10
2009,07,29,14,33,34.20
2009,07,29,14,34,34.20
2009,07,29,14,35,34.30
2009,07,29,14,36,34.30
2009,07,29,14,37,34.40
2009,07,29,14,38,34.40
2009,07,29,14,39,34.40
2009,07,29,14,40,34.40
2009,07,29,14,41,34.40
2009,07,29,14,42,34.40
2009,07,29,14,43,34.40
2009,07,29,14,44,34.30
2009,07,29,14,45,34.30
2009,07,29,14,46,34.30
2009,07,29,14,47,34.40
2009,07,29,14,48,34.60
2009,07,29,14,49,34.70
2009,07,29,14,50,34.70
2009,07,29,14,51,34.70
2009,07,29,14,52,34.70
2009,07,29,14,53,34.70
2009,07,29,14,54,34.70
2009,07,29,14,55,34.70
2009,07,29,14,56,34.70
2009,07,29,14,57,34.70
2009,07,29,14,58,34.80
2009,07,29,14,59,34.80
2009,07,29,15,00,34.90
2009,07,29,15,01,35.10
2009,07,29,15,02,35.20
2009,07,29,15,03,35.20
2009,07,29,15,04,35.10
2009,07,29,15,05,35.10
2009,07,29,15,06,35.00
2009,07,29,15,07,34.90
2009,07,29,15,08,34.80
2009,07,29,15,09,34.80
2009,07,29,15,10,34.90
2009,07,29,15,11,35.00
2009,07,29,15,12,35.00
2009,07,29,15,13,35.10
2009,07,29,15,14,35.00
2009,07,29,15,15,34.90
2009,07,29,15,16,34.80
2009,07,29,15,17,34.80
2009,07,29,15,18,34.70
2009,07,29,15,19,34.70
2009,07,29,15,20,34.80
2009,07,29,15,21,34.90
2009,07,29,15,22,34.90
2009,07,29,15,23,34.80
2009,07,29,15,24,34.80
2009,07,29,15,25,34.70
2009,07,29,15,26,34.70
2009,07,29,15,27,34.60
2009,07,29,15,28,34.70
2009,07,29,15,29,34.80
2009,07,29,15,30,34.80
2009,07,29,15,31,34.80
2009,07,29,15,32,34.70
2009,07,29,15,33,34.70
2009,07,29,15,34,34.70
2009,07,29,15,35,34.70
2009,07,29,15,36,34.80
2009,07,29,15,37,34.90
2009,07,29,15,38,35.10
2009,07,29,15,39,35.20
2009,07,29,15,40,35.20
2009,07,29,15,41,35.20
2009,07,29,15,42,35.20
2009,07,29,15,43,35.10
2009,07,29,15,44,35.10
2009,07,29,15,45,35.10
2009,07,29,15,46,35.10
2009,07,29,15,47,35.20
2009,07,29,15,48,35.20
2009,07,29,15,49,35.20
2009,07,29,15,50,35.20
2009,07,29,15,51,35.30
2009,07,29,15,52,35.40
2009,07,29,15,53,35.40
2009,07,29,15,54,35.40
2009,07,29,15,55,35.50
2009,07,29,15,56,35.60
2009,07,29,15,57,35.60
2009,07,29,15,58,35.70
2009,07,29,15,59,35.70
2009,07,29,16,00,35.70
2009,07,29,16,01,35.80
2009,07,29,16,02,35.80
2009,07,29,16,03,35.90
2009,07,29,16,04,35.90
2009,07,29,16,05,35.80
2009,07,29,16,06,35.80
2009,07,29,16,07,35.90
2009,07,29,16,08,35.90
2009,07,29,16,09,35.90
2009,07,29,16,10,35.90
2009,07,29,16,11,35.90
2009,07,29,16,12,36.00
2009,07,29,16,13,36.00
2009,07,29,16,14,35.90
2009,07,29,16,15,35.90
2009,07,29,16,16,35.90
2009,07,29,16,17,35.90
2009,07,29,16,18,35.80
2009,07,29,16,19,35.80
2009,07,29,16,20,35.80
2009,07,29,16,21,35.70
2009,07,29,16,22,35.70
2009,07,29,16,23,35.70
2009,07,29,16,24,35.70
2009,07,29,16,25,35.80
2009,07,29,16,26,35.80
2009,07,29,16,27,35.90
2009,07,29,16,28,36.00
2009,07,29,16,29,36.00
2009,07,29,16,30,36.10
2009,07,29,16,31,36.10
2009,07,29,16,32,36.20
2009,07,29,16,33,36.20
2009,07,29,16,34,36.20
2009,07,29,16,35,36.30
2009,07,29,16,36,36.30
2009,07,29,16,37,36.30
2009,07,29,16,38,36.20
2009,07,29,16,39,36.20
2009,07,29,16,40,36.10
2009,07,29,16,41,36.00
2009,07,29,16,42,36.00
2009,07,29,16,43,35.90
2009,07,29,16,44,36.00
2009,07,29,16,45,36.10
2009,07,29,16,46,36.30
2009,07,29,16,47,36.30
2009,07,29,16,48,36.30
2009,07,29,16,49,36.40
2009,07,29,16,50,36.40
2009,07,29,16,51,36.30
2009,07,29,16,52,36.20
2009,07,29,16,53,36.20
2009,07,29,16,54,36.20
2009,07,29,16,55,36.20
2009,07,29,16,56,36.20
2009,07,29,16,57,36.20
2009,07,29,16,58,36.20
2009,07,29,16,59,36.20
2009,07,29,17,00,36.30
2009,07,29,17,01,36.30
2009,07,29,17,02,36.40
2009,07,29,17,03,36.30
2009,07,29,17,04,36.30
2009,07,29,17,05,36.30
2009,07,29,17,06,36.20
2009,07,29,17,07,36.10
2009,07,29,17,08,36.10
2009,07,29,17,09,36.10
2009,07,29,17,10,36.10
2009,07,29,17,11,36.00
2009,07,29,17,12,36.00
2009,07,29,17,13,35.90
2009,07,29,17,14,35.90
2009,07,29,17,15,35.90
2009,07,29,17,16,35.80
2009,07,29,17,17,35.80
2009,07,29,17,18,35.80
2009,07,29,17,19,35.80